STARLINK-1132, 45044

Orbit data source: Space-Track

STARLINK-1132, 45044 is a payload satellite owned by SpaceX/Seattle (US) in LEO that was launched on Wed, 29 Jan 2020 UTC via an FALCON 9 launch vehicle from the Air Force Eastern Test Range (AFETR). Payload-class satellites include a variety of spacecraft equipped with specific instruments for various scientific and technological missions. These include communications satellites like Starlink; space stations such as the ISS; scientific satellites like the Hubble; Earth observation satellites from companies like Planet Labs, Umbra, and HawkEye 360; GPS; miniature CubeSats for education and research; and military/defense satellites.

Loading next visibility...
Identifier
45044, 2020-006A
Orbit
LEO
Country
Flag of USUS
Related business
Manufacturer
SpaceX/Seattle
Mission
Partially operational Commercial Communications
Bus & Motor
STARLINK, Unknown motor
Mass
260 kg wet, ~248 kg dry
Launch date (UTC)
2020-01-29 (6 years ago)
Launch vehicle
FALCON 9
Launch site
Air Force Eastern Test Range (AFETR)
Object type
Payload
Rocket body
Debris
Shape & HBR
Box + 1 Pan, 10.1 m
Radar Cross Section
13.562 m², Large (>1 m²)

Expand to show TLE details & history
Last TLE update: 13 hours ago

TLE from 13 hours ago
0 STARLINK-1132
1 45044U 20006A   26170.58616242  .00062916  00000-0  84690-3 0  9999
2 45044  53.1505 126.0296 0004124  68.6823 291.4630 15.57281584352739
Epoch: 2026-06-19T14:04Z
TLE epoch observation values (Epoch: 2026-06-19T14:04:04.433Z)
Latitude
0.00005°
Longitude
7.19815°
Altitude
395.417 km
Speed
7.675 km/s
True Right ascension
08h 24m 07s
True Declination
0° 00' 00"
Sunlit
Object was in daylight at epoch
Visualization orbit readout
Latitude
Unknown
Longitude
Unknown
Altitude
Unknown
Speed
Unknown
Apparent Right ascension
Unknown
Apparent Declination
Unknown
Sunlit
N/A
Visualization observer readout
Local Sidereal Time
13:31:32
Azimuth
Unknown
Elevation
Unknown
Doppler factor
Unknown
Orbital elements
Apogee altitude
398.583 km
Perigee altitude
392.996 km
Semi-major axis
6,773.926 km
Eccentricity
0.00041
Inclination
53.1505°
RAAN
126.0296°
Arg. of periapsis
68.6823°
True anomaly
291.41901°
Mean anomaly
291.463°
Eccentric anomaly
291.44101°
Mean motion
3.89298 °/min
Orbital period
92.47 mins
BSTAR
0.0008469
Loading maneuver chart data...
Computing Atmospheric mass density...

Documentation

Showing up to 5 results
|